[[{"header":{"parameterUnit":"m.s-1","parameterCategory":1,"la1":30.2991,"la2":30.254,"lo1":-89.0895,"lo2":-89.0444,"dy":0.0017,"dx":0.0017,"nx":28,"ny":28,"refTime":"2025-05-25T03:00:00:Z","depth":0,"parameterNumber":2,"parameterNumberName":"U-component_of_WINDS"},"data":[0,0,0,0,0,0,0,0,0,0,0,0,0,0,0,0,0,0,0,0,0,0,0,0,0,0,0,0,0,0,0,0,0,0,0,0,0,0,0,0,0,0,0,0,0,0,0,0,0,0,0,0,0,0,0,0,0,0,-0.3081,-0.3081,0,-0.308,-0.308,-0.308,-0.3078,-0.3078,-0.3078,-0.3078,-0.3078,-0.3078,-0.3079,0,0,0,0,0,0,0,0,0,0,0,0,0,-0.3082,-0.3082,-0.3081,-0.3081,-0.3081,-0.308,-0.308,-0.308,-0.3078,-0.3078,-0.3078,-0.3078,-0.3078,-0.3078,-0.3079,0,0,0,0,0,0,0,0,0,0,0,0,0,-0.3081,-0.3082,-0.3081,-0.308,-0.308,-0.308,-0.308,-0.308,-0.3078,-0.3078,-0.3078,-0.3078,-0.3078,-0.3078,-0.3079,-0.308,0,0,-0.3079,-0.3079,0,0,0,0,0,0,0,0,-0.3081,-0.3081,-0.308,-0.308,-0.308,-0.3079,-0.308,-0.308,-0.3078,-0.3079,-0.3078,-0.3078,-0.3079,-0.3079,-0.3079,-0.308,-0.308,-0.3079,-0.3079,-0.3079,-0.3079,0,0,0,0,0,0,0,-0.3081,-0.3081,-0.3081,-0.308,-0.308,-0.308,-0.3079,-0.308,-0.3079,-0.3079,-0.3079,-0.3078,-0.3079,-0.3079,-0.3079,-0.308,-0.3079,-0.3079,-0.3079,-0.3079,-0.3083,-0.3083,0,0,0,0,0,0,-0.3081,-0.3081,-0.3081,-0.3081,-0.308,-0.308,-0.3079,-0.3079,-0.3079,-0.3079,-0.3078,-0.3078,-0.3079,-0.3079,-0.3079,-0.3081,-0.3079,-0.3079,-0.3079,-0.3083,-0.3083,-0.3083,0,0,0,0,0,0,-0.3081,-0.3081,-0.3081,-0.3081,-0.3081,-0.308,-0.308,-0.3079,-0.3079,-0.3079,-0.3079,-0.3079,-0.3079,-0.3079,-0.308,-0.3081,-0.3079,-0.3079,-0.3083,-0.3083,-0.3083,-0.3085,0,0,0,0,0,0,-0.3081,-0.3081,-0.3082,-0.3081,-0.3081,-0.3081,-0.308,-0.3079,-0.3079,-0.3079,-0.3079,-0.3079,-0.3079,-0.308,-0.308,-0.3081,-0.3079,-0.3083,-0.3083,-0.3083,-0.3085,-0.3085,-0.3085,0,0,0,0,0,-0.3081,-0.3083,-0.3082,-0.3082,-0.3081,-0.3082,-0.3081,-0.308,-0.308,-0.308,-0.308,-0.3079,-0.308,-0.308,-0.308,-0.3081,-0.3083,-0.3083,-0.3083,-0.3084,-0.3085,-0.3085,0,0,0,0,0,0,-0.3085,-0.3083,-0.3082,-0.3083,-0.3082,-0.3081,-0.3082,-0.3081,-0.3081,-0.3081,-0.308,-0.308,-0.3081,-0.3081,-0.308,-0.3082,-0.3081,-0.3082,-0.3083,-0.3083,-0.3083,-0.3083,-0.3079,0,0,0,0,0,-0.3086,-0.3085,-0.3084,-0.3085,-0.3085,-0.3083,-0.3083,-0.3082,-0.3082,-0.3082,-0.3082,-0.3082,-0.3082,-0.3082,-0.3083,-0.3084,-0.3084,-0.3085,-0.3085,-0.3086,-0.3086,-0.3086,-0.3087,-0.3083,-0.3083,-0.3083,0,0,-0.3088,-0.3086,-0.3086,-0.3086,-0.3085,-0.3085,-0.3083,-0.3084,-0.3084,-0.3082,-0.3083,-0.3083,-0.3083,-0.3084,-0.3084,-0.3084,-0.3087,-0.3086,-0.3086,-0.3086,-0.3086,-0.3087,-0.3087,-0.3083,-0.3083,-0.3083,0,0,-0.3091,-0.309,-0.3091,-0.309,-0.3089,-0.3088,-0.3088,-0.3087,-0.3086,-0.3087,-0.3085,-0.3086,-0.3086,-0.3086,-0.3086,-0.3088,-0.3088,-0.3088,-0.309,-0.309,-0.3091,-0.3091,-0.3092,-0.3092,-0.3089,-0.3089,-0.3089,0,-0.3094,-0.3094,-0.3091,-0.3091,-0.3091,-0.3089,-0.3089,-0.3089,-0.3088,-0.3088,-0.3087,-0.3088,-0.3087,-0.3088,-0.3089,-0.3089,-0.3089,-0.3089,-0.3091,-0.3091,-0.3091,-0.3092,-0.3092,-0.3089,-0.3089,-0.3089,-0.3089,0,-0.3097,-0.3097,-0.3097,-0.3096,-0.3095,-0.3096,-0.3094,-0.3094,-0.3093,-0.3092,-0.3092,-0.3091,-0.3091,-0.3091,-0.3091,-0.3092,-0.3092,-0.3091,-0.309,-0.3092,-0.3092,-0.3092,-0.3089,-0.3089,-0.3089,-0.3089,0,0,-0.3104,-0.31,-0.31,-0.3099,-0.3097,-0.3097,-0.3097,-0.3097,-0.3097,-0.3096,-0.3096,-0.3096,-0.3095,-0.3095,-0.3094,-0.3094,-0.3096,-0.3093,-0.3093,-0.3094,-0.3097,-0.3098,-0.3098,-0.3095,-0.3095,-0.3095,-0.3097,0,-0.3107,-0.3107,-0.3104,-0.3105,-0.3105,-0.3102,-0.3102,-0.3101,-0.3099,-0.3099,-0.3098,-0.3098,-0.3097,-0.3096,-0.3097,-0.3096,-0.3097,-0.3095,-0.3096,-0.3096,-0.3096,-0.3099,-0.31,-0.3102,-0.3097,-0.3097,-0.3097,0,-0.3111,-0.311,-0.311,-0.3107,-0.3107,-0.3107,-0.3106,-0.3106,-0.3104,-0.3103,-0.3102,-0.3101,-0.3101,-0.3099,-0.3099,-0.3099,-0.3099,-0.3098,-0.3098,-0.3098,-0.3097,-0.3099,-0.3102,-0.3103,-0.3098,-0.3098,-0.3098,0,-0.3117,-0.3115,-0.3114,-0.3114,-0.311,-0.311,-0.3109,-0.3107,-0.3107,-0.3106,-0.3105,-0.3104,-0.3104,-0.3103,-0.3102,-0.3101,-0.3102,-0.31,-0.3101,-0.3101,-0.3102,-0.3102,-0.3105,-0.3101,-0.3101,-0.3101,-0.3101,0,-0.3121,-0.3121,-0.3116,-0.3116,-0.3116,-0.3113,-0.3114,-0.3112,-0.311,-0.311,-0.3108,-0.3107,-0.3105,-0.3105,-0.3103,-0.3103,-0.3103,-0.3102,-0.3102,-0.3103,-0.3103,-0.3103,-0.3103,-0.3102,-0.3101,-0.3101,-0.3101,0,-0.3127,-0.3124,-0.3123,-0.312,-0.3119,-0.3119,-0.3116,-0.3116,-0.3114,-0.3113,-0.3113,-0.311,-0.311,-0.3108,-0.3107,-0.3105,-0.3106,-0.3105,-0.3106,-0.3106,-0.3107,-0.3107,-0.3111,-0.3111,-0.3107,-0.3107,-0.3107,0,-0.3131,-0.313,-0.3126,-0.3125,-0.3124,-0.3123,-0.3122,-0.3119,-0.3118,-0.3115,-0.3115,-0.3114,-0.3113,-0.3112,-0.311,-0.3109,-0.3108,-0.311,-0.3108,-0.3109,-0.3108,-0.3109,-0.3109,-0.311,-0.311,-0.311,-0.311,0,-0.3137,-0.3135,-0.3133,-0.3131,-0.3129,-0.3127,-0.3126,-0.3125,-0.3121,-0.312,-0.3119,-0.3118,-0.3116,-0.3115,-0.3114,-0.3113,-0.3111,-0.3111,-0.3111,-0.3112,-0.3112,-0.3112,-0.3108,-0.3111,-0.3111,-0.3111,-0.3111,-0.3111,-0.3142,-0.3141,-0.3138,-0.3136,-0.3134,-0.3132,-0.3131,-0.3129,-0.3127,-0.3125,-0.3123,-0.3122,-0.312,-0.3117,-0.3116,-0.3115,-0.3114,-0.3115,-0.3115,-0.3115,-0.3115,-0.3112,-0.3115,-0.3115,-0.3115,-0.3115,-0.3115,0,-0.3148,-0.3145,-0.3143,-0.314,-0.3139,-0.3136,-0.3133,-0.3132,-0.3131,-0.3129,-0.3127,-0.3125,-0.3124,-0.3121,-0.312,-0.3119,-0.3118,-0.3119,-0.3119,-0.3119,-0.3116,-0.3116,-0.312,-0.312,-0.312,-0.312,-0.312,-0.312,-0.3151,-0.315,-0.3148,-0.3145,-0.3143,-0.3141,-0.3139,-0.3137,-0.3135,-0.3133,-0.3132,-0.313,-0.3127,-0.3125,-0.3123,-0.3123,-0.3122,-0.3123,-0.3122,-0.312,-0.3119,-0.3119,-0.3119,-0.3123,-0.3123,-0.3125,-0.3125,-0.3125]},{"header":{"parameterUnit":"m.s-1","parameterCategory":1,"la1":30.2991,"la2":30.254,"lo1":-89.0895,"lo2":-89.0444,"dy":0.0017,"dx":0.0017,"nx":28,"ny":28,"refTime":"2025-05-25T03:00:00:Z","depth":0,"parameterNumber":3,"parameterNumberName":"V-component_of_WINDS"},"data":[0,0,0,0,0,0,0,0,0,0,0,0,0,0,0,0,0,0,0,0,0,0,0,0,0,0,0,0,0,0,0,0,0,0,0,0,0,0,0,0,0,0,0,0,0,0,0,0,0,0,0,0,0,0,0,0,0,0,4.3749,4.3748,0,4.3712,4.3711,4.3711,4.3621,4.3619,4.3617,4.3615,4.358,4.3581,4.3582,0,0,0,0,0,0,0,0,0,0,0,0,0,4.3745,4.3746,4.3749,4.3748,4.3748,4.3712,4.3711,4.3711,4.3621,4.3619,4.3617,4.3614,4.358,4.3581,4.3582,0,0,0,0,0,0,0,0,0,0,0,0,0,4.3731,4.3746,4.3749,4.3699,4.3694,4.3712,4.3711,4.371,4.3622,4.3619,4.3616,4.3613,4.358,4.3581,4.3582,4.3647,0,0,4.3586,4.3587,0,0,0,0,0,0,0,0,4.3732,4.3732,4.3706,4.3702,4.3697,4.3668,4.3697,4.3689,4.3622,4.3649,4.3615,4.3612,4.3612,4.361,4.361,4.3645,4.3644,4.3586,4.3587,4.3588,4.3588,0,0,0,0,0,0,0,4.3733,4.3733,4.3734,4.3706,4.37,4.3679,4.3674,4.3695,4.3647,4.3647,4.364,4.3637,4.3609,4.3609,4.3608,4.3643,4.3586,4.3587,4.3588,4.3589,4.373,4.3733,0,0,0,0,0,0,4.3741,4.3734,4.3735,4.3733,4.3708,4.3681,4.3676,4.368,4.3647,4.3639,4.3639,4.3633,4.3608,4.3607,4.3607,4.368,4.3588,4.3589,4.3589,4.3727,4.3731,4.3734,0,0,0,0,0,0,4.3741,4.3742,4.3737,4.3732,4.3729,4.3684,4.369,4.3681,4.3681,4.3641,4.3632,4.3648,4.3606,4.3605,4.3637,4.3678,4.3589,4.359,4.3723,4.3728,4.3732,4.3827,0,0,0,0,0,0,4.3742,4.3743,4.3766,4.3733,4.373,4.3767,4.3693,4.3682,4.3683,4.3674,4.3647,4.3639,4.3604,4.3636,4.3639,4.3678,4.3591,4.372,4.3725,4.3731,4.382,4.3834,4.3847,0,0,0,0,0,4.3742,4.3795,4.3768,4.3768,4.3758,4.377,4.3768,4.3725,4.3686,4.371,4.3684,4.364,4.3673,4.364,4.3642,4.3682,4.3717,4.3724,4.373,4.3814,4.3832,4.3846,0,0,0,0,0,0,4.3835,4.3789,4.3759,4.3802,4.3791,4.3754,4.3783,4.3744,4.3744,4.3736,4.3683,4.3678,4.3718,4.3703,4.3667,4.3743,4.3688,4.3695,4.3751,4.3767,4.378,4.3783,4.3592,0,0,0,0,0,4.386,4.3872,4.3833,4.3875,4.3871,4.3828,4.3831,4.3799,4.3785,4.378,4.3757,4.3746,4.3753,4.3759,4.3764,4.3818,4.3811,4.3847,4.386,4.3871,4.3878,4.3906,4.3921,4.3756,4.3756,4.3756,0,0,4.3913,4.389,4.3901,4.3893,4.388,4.3895,4.3824,4.3843,4.3854,4.3783,4.3811,4.3795,4.3779,4.3822,4.384,4.3811,4.3922,4.3879,4.3888,4.389,4.3914,4.393,4.3944,4.3761,4.376,4.3759,0,0,4.4017,4.4001,4.4034,4.4022,4.4003,4.3974,4.3983,4.3952,4.3938,4.3966,4.3913,4.3926,4.394,4.3931,4.3928,4.4029,4.3989,4.4033,4.4101,4.4129,4.4142,4.4153,4.419,4.4203,4.404,4.404,4.404,0,4.4085,4.4104,4.4056,4.4078,4.4077,4.4012,4.4046,4.4038,4.4022,4.4023,4.3991,4.4007,4.3992,4.4033,4.4057,4.4057,4.4066,4.4035,4.4144,4.4155,4.4164,4.4199,4.4212,4.4046,4.4045,4.4044,4.4044,0,4.419,4.4204,4.4234,4.4219,4.422,4.4249,4.4206,4.4214,4.4181,4.4157,4.4186,4.4166,4.4166,4.4173,4.4142,4.421,4.4192,4.4153,4.4096,4.4186,4.4218,4.423,4.4053,4.4051,4.405,4.4048,0,0,4.4351,4.4309,4.432,4.4313,4.4287,4.4298,4.4324,4.4322,4.433,4.4322,4.4342,4.4356,4.4319,4.4317,4.4284,4.4309,4.4391,4.4266,4.4265,4.429,4.4464,4.4494,4.451,4.4364,4.4366,4.4368,4.4465,0,4.4448,4.4488,4.4446,4.4495,4.4508,4.4448,4.447,4.4458,4.4436,4.4444,4.442,4.443,4.4381,4.4379,4.44,4.4376,4.4425,4.4368,4.4383,4.4384,4.4389,4.4526,4.4557,4.465,4.4477,4.4479,4.4481,0,4.4567,4.4563,4.4614,4.4585,4.4589,4.4609,4.4605,4.4614,4.4599,4.4581,4.4578,4.4539,4.4563,4.4508,4.4541,4.4504,4.4507,4.4497,4.4499,4.4499,4.4438,4.453,4.4679,4.4693,4.4499,4.4498,4.4497,0,4.468,4.4687,4.4718,4.4713,4.4681,4.4697,4.4684,4.4666,4.4668,4.4665,4.4666,4.4666,4.4667,4.4668,4.463,4.4594,4.4669,4.461,4.4655,4.4656,4.4674,4.4673,4.4826,4.4676,4.4676,4.4676,4.4676,0,4.4793,4.4826,4.4768,4.4787,4.4823,4.4775,4.4812,4.4793,4.4778,4.4793,4.4741,4.4757,4.4706,4.4717,4.4688,4.472,4.4721,4.4708,4.4699,4.4712,4.4714,4.4714,4.4706,4.468,4.4679,4.4678,4.4677,0,4.4924,4.4887,4.4916,4.4883,4.4875,4.4903,4.4875,4.4892,4.4866,4.4887,4.4889,4.4849,4.4859,4.4822,4.4826,4.4806,4.4854,4.4835,4.4859,4.4853,4.49,4.4896,4.5058,4.5077,4.4916,4.4918,4.4919,0,4.4999,4.5023,4.4992,4.4998,4.4988,4.4998,4.5,4.4954,4.4958,4.4943,4.4962,4.4967,4.4969,4.4988,4.4961,4.4964,4.4945,4.5001,4.4945,4.4957,4.4946,4.4945,4.4947,4.5013,4.5015,4.5017,4.5018,0,4.5136,4.5116,4.5119,4.5117,4.512,4.5117,4.5109,4.5118,4.5068,4.5076,4.5084,4.5086,4.509,4.5096,4.5093,4.5081,4.5042,4.5036,4.5046,4.506,4.5072,4.5066,4.4891,4.5032,4.5031,4.503,4.5029,4.5028,4.5241,4.5259,4.524,4.5247,4.5236,4.5231,4.5245,4.5221,4.5227,4.5226,4.5199,4.5214,4.5199,4.5191,4.5183,4.5194,4.5168,4.5183,4.5187,4.5192,4.52,4.5071,4.5194,4.5193,4.5193,4.5192,4.5192,0,4.5375,4.5359,4.5366,4.5357,4.5362,4.5323,4.5313,4.5321,4.5334,4.5323,4.5325,4.5336,4.5343,4.5316,4.5318,4.5333,4.5315,4.5335,4.5334,4.5332,4.5223,4.5214,4.535,4.535,4.535,4.535,4.5349,4.5349,4.5445,4.5474,4.5453,4.5477,4.5462,4.5475,4.5472,4.5468,4.5458,4.5472,4.5477,4.5459,4.5442,4.5443,4.5447,4.5439,4.5443,4.5469,4.5455,4.5355,4.5339,4.5325,4.5315,4.5471,4.5471,4.5563,4.5564,4.5564]}]]